Location: Bílinka
(49.3579°N, 14.3767°E)
Time: 01:27:44
(UTC+00:00)

Cosmos 1763 Rocket - Pass Details

Date: 28 January 2023
Orbit: 733 x 778 km, 74.0° (Epoch: 30 March)

Event Time Altitude Azimuth Distance (km) Brightness Sun altitude
Rises 18:58:41 0° 331° (NNW) 3,238 7.2 -30.4°
Reaches altitude 10° 19:01:10 10° 325° (NW) 2,300 6.4 -30.8°
Maximum altitude 19:06:03 42° 256° (WSW) 1,065 4.5 -31.5°
Enters shadow 19:06:35 41° 239° (WSW) 1,086 4.5 -31.6°
